Tracking 28091 objects as of 30-Sep-2023
HD Live streaming from Space Station
objects crossing your sky now

STARLINK-30159

Track STARLINK-30159 now!
10-day predictions
STARLINK-30159 is classified as:


NORAD ID: 57440
Int'l Code: 2023-105L
Perigee: 564.6 km
Apogee: 567.8 km
Inclination: 43.0 °
Period: 95.8 minutes
Semi major axis: 6937 km
RCS: Unknown
Launch date: July 24, 2023
Source: United States (US)
Launch site: AIR FORCE EASTERN TEST RANGE (AFETR)
Your satellite tracking list
Your tracking list is empty




NASA's NSSDC Master Catalog

Two Line Element Set (TLE):
1 57440U 23105L   23272.52079075  .00000813  00000-0  75244-4 0  9990
2 57440  43.0017  69.5815 0002260 276.2107  83.8477 15.02536416 11198
Source of the keplerian elements: AFSPC